RH
20 19 22 24 26 27 28 30 32 34 34 35 36 37 38 36 37 39 39 38 38 36 36 36 36 34 31 28 26 26 25 26 27 27 25 24 15 21 36 37 42 46 48
25 21 24 26 27 29 30 32 34 36 36 38 40 41 42 40 41 43 44 46 46 44 42 39 35 28 29 33 35 37 38 36 29 22 20 22 22 21 15 17 34 40 47
30 31 28 29 29 32 33 34 37 37 39 41 44 46 45 44 44 48 50 54 57 58 56 50 43 35 35 37 43 46 44 42 38 35 31 27 20 18 19 18 16 20 36
34 36 34 32 33 34 35 36 40 41 42 45 48 50 50 50 50 52 56 59 64 66 67 64 60 55 54 53 52 47 44 43 39 37 37 36 34 31 28 22 17 18 16
38 40 40 40 39 38 38 39 43 44 46 48 51 53 55 55 56 59 62 66 72 73 74 73 71 67 64 65 66 55 45 41 32 33 34 32 29 28 29 28 23 18 16
41 44 45 48 51 48 42 42 45 48 50 53 55 57 58 59 61 63 67 70 72 76 84 85 79 78 76 72 72 66 54 43 30 28 29 29 26 25 24 23 22 20 18
46 50 51 51 53 55 47 46 48 53 56 58 60 61 63 64 65 66 68 71 75 80 86 86 90 92 92 86 78 76 61 50 39 30 26 24 25 25 23 20 18 18 16
57 58 57 58 63 63 54 50 51 56 59 61 63 63 64 69 71 73 75 80 85 87 87 86 85 86 91 93 87 82 67 54 49 37 28 25 24 22 18 15 14 13 14
66 65 69 72 70 70 63 56 53 54 56 60 62 62 62 67 76 83 88 94 96 95 88 86 87 88 96 98 95 85 68 59 54 40 30 26 24 21 15 12 10 9 10
75 84 91 88 77 77 76 76 73 65 63 65 70 78 80 74 82 92 96 97 97 92 85 79 89 99 99 97 95 83 65 59 46 34 28 26 24 20 16 14 12 11 11
91 96 92 92 89 85 80 76 77 80 85 87 85 86 89 92 96 99 97 97 97 93 91 92 97 99 98 97 96 94 92 78 41 29 27 24 21 18 17 15 16 16 16
94 99 98 98 97 92 85 80 74 71 70 78 88 94 98 100 100 100 100 96 96 94 95 100 99 98 97 97 98 97 95 64 34 27 24 20 18 19 18 17 19 23 28
99 99 97 98 97 95 93 86 75 71 65 60 76 83 91 99 98 97 96 91 94 97 97 97 96 97 98 98 96 88 70 64 73 59 28 25 21 22 28 32 35 40 40
98 98 97 98 98 97 86 76 69 58 57 60 67 82 93 92 93 95 97 100 99 97 97 96 97 96 97 87 75 66 55 40 34 30 27 30 32 36 42 53 57 63 69
97 96 97 97 97 87 68 69 72 72 74 79 88 92 94 97 100 98 95 94 94 95 97 96 94 88 82 74 83 86 59 45 39 38 36 41 50 64 66 70 71 79 83
97 97 96 94 91 73 76 80 80 79 82 91 93 95 98 98 98 100 99 96 96 96 97 98 97 96 95 96 95 92 67 54 48 47 50 49 58 73 78 77 84 90 92
96 95 96 91 86 81 82 87 88 90 91 91 90 93 93 97 96 97 96 95 96 96 96 96 96 96 96 97 97 96 94 88 75 59 58 57 67 78 81 86 90 95 97
94 92 91 87 84 85 89 93 93 92 90 87 83 82 80 79 78 78 76 77 83 87 91 93 96 96 97 97 96 92 83 71 65 72 72 70 78 85 87 91 96 98 97
82 81 88 88 86 84 84 83 80 77 74 70 66 60 57 56 60 62 63 66 69 72 75 77 79 80 82 88 91 93 88 82 79 86 89 88 87 92 96 100 96 98 100
85 87 86 82 78 70 64 63 63 59 53 48 47 47 47 49 52 55 58 62 67 69 75 79 84 90 91 99 100 100 100 95 96 97 98 98 95 98 100 100 98 96 99
79 74 69 64 51 42 40 41 43 42 35 26 17 12 12 11 14 19 29 42 53 63 72 79 86 95 100 100 100 100 100 98 98 96 99 100 100 99 96 95 91 83 85
64 56 50 49 46 42 30 17 8 6 6 6 7 8 8 9 9 9 12 19 30 42 57 74 82 91 98 100 100 100 100 100 99 94 96 98 95 86 68 51 41 46 55
50 48 40 22 8 6 7 9 11 11 10 10 9 10 10 11 12 11 12 14 22 37 46 61 74 84 95 100 100 100 100 100 100 98 93 95 83 65 43 34 42 93 70
30 9 6 8 12 14 15 15 12 10 9 8 8 8 9 10 12 14 15 14 15 24 44 56 63 84 91 96 100 100 100 100 100 100 100 99 96 72 51 50 93 100 70
9 12 14 17 19 18 19 22 22 21 19 16 13 10 9 10 12 16 19 20 18 19 28 54 68 74 84 95 100 98 97 100 100 100 99 98 90 78 93 95 100 97 97
19 20 23 25 28 31 33 35 36 36 36 34 30 23 16 14 16 18 19 26 23 21 21 35 74 83 78 84 97 100 100 100 100 100 98 100 98 86 87 100 100 100 100
Wind_Speed
8 7 9 11 10 10 11 11 11 12 11 9 9 11 13 13 12 12 13 13 13 14 14 15 15 14 14 13 14 14 14 14 15 19 17 16 18 21 22 24 27 28 32
5 7 9 10 10 11 11 12 13 13 13 11 10 12 14 14 12 13 16 16 16 18 18 17 18 17 14 14 16 18 17 16 15 14 18 20 20 19 21 23 24 26 28
4 6 8 11 11 10 12 15 15 16 15 13 13 13 15 16 15 16 18 20 23 25 24 22 20 19 20 21 21 22 21 20 18 17 17 16 18 20 19 21 22 24 25
4 3 5 9 12 14 15 16 17 18 17 16 15 15 16 18 17 18 20 22 25 27 29 28 27 24 23 23 23 24 24 23 22 22 21 21 20 20 20 20 23 24 25
6 4 4 8 11 13 15 17 18 19 19 19 18 19 19 20 19 21 21 22 25 29 30 31 31 30 29 28 27 25 23 24 27 26 24 23 22 23 22 21 21 24 27
9 4 4 9 14 15 15 17 19 20 22 22 22 22 22 23 24 24 25 26 28 31 30 31 32 32 35 35 32 29 27 27 26 25 24 24 23 23 24 23 21 22 24
9 6 9 13 15 17 18 19 20 23 25 25 26 25 26 28 30 29 29 31 33 35 36 34 34 37 38 37 37 35 32 31 29 27 24 24 25 25 26 27 27 25 25
10 9 12 14 15 16 18 20 22 25 27 29 30 30 31 32 34 34 34 36 39 40 38 36 36 37 38 38 38 37 36 35 33 32 32 30 28 27 27 27 29 30 30
11 13 14 15 14 13 15 18 22 25 29 31 32 34 35 37 39 39 41 42 42 42 41 38 38 39 40 40 39 37 37 36 35 35 34 35 35 32 29 28 29 31 31
16 19 25 19 15 15 17 20 22 23 25 27 30 33 36 38 41 44 45 43 40 43 43 39 37 38 40 41 39 38 36 35 35 35 35 35 35 35 33 32 31 32 33
33 23 23 20 18 18 20 22 24 27 29 30 31 33 35 38 43 45 44 45 43 44 40 38 37 37 38 39 39 40 39 37 37 36 35 35 34 34 35 34 35 35 35
28 24 23 25 22 20 22 22 23 26 28 30 32 35 37 41 42 43 43 41 40 39 38 35 35 35 35 36 37 36 35 34 35 35 35 35 34 32 34 35 35 36 37
30 23 22 22 21 21 23 24 25 26 31 36 36 37 40 39 39 37 36 35 35 34 34 33 34 35 35 35 34 34 34 35 37 36 35 34 35 35 33 34 35 35 37
27 21 21 22 21 21 21 23 26 30 32 34 35 35 35 34 33 32 33 32 33 33 34 34 35 36 36 34 34 35 35 35 35 35 34 32 32 33 34 34 34 34 34
25 22 20 18 19 21 25 26 27 29 31 31 31 31 32 32 32 33 34 35 36 37 37 38 38 39 39 38 38 38 37 36 36 35 34 32 31 31 32 33 33 33 33
19 17 18 19 21 25 26 27 28 29 30 30 31 32 33 35 36 37 37 38 39 40 42 41 41 41 41 40 40 39 38 37 37 37 35 33 32 30 31 33 32 31 31
17 21 25 25 24 25 27 27 28 29 30 31 33 35 36 37 38 38 38 39 39 40 40 40 40 40 40 40 40 40 41 41 39 38 37 35 33 31 31 32 32 32 31
23 26 25 24 24 26 27 28 29 31 32 33 35 36 37 38 39 40 40 41 41 42 42 42 42 42 41 41 40 40 40 41 40 37 37 36 33 32 31 32 32 31 30
23 23 24 24 25 27 29 31 33 36 37 39 40 40 41 42 42 42 42 43 43 44 45 45 45 45 44 42 41 41 42 42 41 37 36 35 34 31 31 34 32 31 29
23 22 22 24 27 31 34 36 39 41 43 44 44 44 45 45 45 45 45 44 44 45 45 45 45 45 45 43 41 40 41 42 40 37 35 35 33 32 33 34 32 31 27
22 25 28 30 34 37 40 42 43 44 44 44 44 43 42 43 43 43 43 42 42 43 43 43 43 43 42 41 40 39 40 40 39 37 34 33 33 31 31 31 30 28 28
27 30 33 36 38 41 42 41 39 37 36 36 37 37 38 39 40 41 41 40 40 40 39 39 39 37 37 37 37 36 37 38 38 36 33 31 31 31 30 31 29 27 27
33 36 38 39 37 34 32 33 35 36 37 38 38 39 39 39 39 40 41 40 40 39 38 38 37 34 33 34 34 34 34 35 35 35 33 29 30 30 30 28 26 24 27
36 35 31 30 30 32 32 35 37 38 38 39 39 39 39 39 39 39 39 40 39 39 39 37 36 35 33 32 31 32 32 32 32 33 31 27 27 27 27 26 22 27 24
28 30 30 30 31 33 34 35 38 40 40 40 40 41 41 40 40 38 38 39 38 38 38 37 36 36 34 30 31 31 29 28 28 30 30 28 28 26 24 23 23 25 24
28 30 30 32 34 35 36 37 39 40 41 42 42 41 42 41 40 40 38 35 37 38 37 37 36 36 35 31 29 24 25 23 22 24 26 24 25 26 27 20 28 28 25
Wind_Direction
273 263 256 258 263 265 262 262 261 261 265 280 297 313 314 310 316 322 322 318 315 309 304 304 305 302 298 300 306 305 303 299 294 293 285 284 283 274 267 261 261 261 258
283 266 259 263 266 264 264 261 258 256 261 270 285 302 302 297 304 315 315 316 316 312 308 303 300 298 295 299 302 304 303 300 297 293 291 286 281 277 278 275 268 264 260
277 264 253 256 266 268 259 256 257 254 255 265 277 291 295 290 291 301 305 311 315 313 307 300 293 288 289 293 297 301 298 294 290 286 284 284 285 282 274 274 275 271 267
274 316 262 257 259 257 255 255 254 253 256 263 274 285 289 285 283 291 296 303 309 308 302 299 297 295 294 293 292 296 293 296 298 293 286 280 278 277 278 275 272 271 269
267 332 281 274 274 271 260 255 255 256 259 264 272 277 281 275 273 283 289 297 311 314 305 298 294 293 293 292 293 292 288 292 298 298 295 290 286 280 274 271 268 267 266
262 288 273 294 294 281 268 263 261 260 261 263 268 274 278 271 273 279 284 292 301 311 308 299 293 292 292 290 291 290 287 290 294 294 293 294 294 294 289 280 271 263 260
248 259 288 306 298 273 258 256 257 257 258 262 266 271 274 270 273 278 283 288 295 304 308 298 290 290 289 285 286 288 288 289 295 298 293 291 292 292 290 288 284 276 268
248 270 291 305 290 269 259 254 253 255 257 261 265 271 274 274 276 280 284 288 292 298 303 297 291 289 287 283 282 283 284 286 290 293 295 296 293 288 287 284 282 279 276
259 280 295 299 279 272 267 264 263 262 263 266 270 275 278 279 278 279 281 285 289 293 297 292 287 285 281 277 277 278 279 282 283 285 287 289 292 291 287 282 278 276 274
276 283 287 281 271 276 276 274 272 271 271 272 273 275 276 276 274 277 282 286 284 285 291 289 288 283 277 272 271 272 275 279 279 280 281 282 283 284 285 284 282 280 274
270 287 278 269 267 270 273 273 271 270 270 270 271 273 274 274 275 279 280 282 284 288 288 285 280 276 275 274 274 274 273 273 275 278 280 281 281 281 283 283 283 281 278
285 282 274 265 254 265 271 276 281 280 274 272 273 273 273 274 277 279 280 282 284 284 284 279 276 274 273 272 271 271 272 274 279 281 282 281 281 283 282 281 279 277 276
289 281 275 259 261 266 274 283 286 288 291 285 277 276 276 277 279 281 282 282 280 278 276 275 276 276 274 273 272 271 272 276 279 280 282 285 287 283 280 277 274 271 271
263 252 257 255 257 270 288 298 297 292 284 281 281 280 280 281 282 281 279 277 274 272 273 275 274 274 273 273 274 276 279 280 280 280 281 281 281 281 278 275 271 268 266
252 250 250 260 279 288 285 280 278 281 284 285 285 283 281 279 277 275 275 274 273 272 273 273 272 271 272 273 274 275 278 281 282 282 281 282 281 278 276 272 270 266 263
248 258 274 294 297 293 287 285 284 283 283 282 282 280 279 277 276 275 274 275 274 273 273 272 271 271 272 275 275 273 274 278 281 279 278 279 279 276 272 271 268 265 264
275 289 298 297 289 287 285 283 282 282 281 280 279 279 278 278 278 279 278 277 277 277 277 277 277 276 276 276 277 277 276 275 275 277 276 276 276 272 270 268 265 262 262
295 297 292 288 286 285 286 286 286 287 287 288 287 286 286 285 284 283 282 281 280 280 279 279 279 278 277 276 276 276 274 273 272 271 272 273 272 270 266 264 261 261 260
288 285 286 288 290 292 293 293 294 293 292 292 292 292 291 289 288 286 284 282 280 278 277 277 276 276 275 275 273 272 270 270 269 268 268 268 267 266 264 262 260 258 258
289 290 292 294 295 297 296 296 295 294 294 293 293 292 292 291 289 288 286 283 281 279 277 276 275 274 274 272 271 269 269 268 267 266 264 264 264 261 259 259 259 256 256
294 296 297 297 297 297 297 296 296 295 295 294 294 294 293 292 291 289 287 285 283 281 280 278 276 275 274 272 270 268 266 266 266 264 262 261 261 258 257 258 258 257 253
294 295 297 298 297 296 296 296 297 297 298 298 297 297 296 295 294 292 291 289 286 284 282 280 278 276 275 272 271 268 267 266 265 263 261 258 257 256 254 254 255 252 249
295 297 298 298 298 298 299 300 300 299 299 299 299 298 296 294 292 291 289 287 285 283 282 281 280 279 274 272 270 270 267 266 265 265 262 255 254 254 251 249 247 236 241
298 297 297 299 301 301 302 303 302 302 304 304 302 300 298 295 293 291 289 287 284 282 280 279 277 275 272 271 270 266 266 266 265 262 260 259 252 248 247 242 227 238 239
297 300 302 304 303 303 305 306 305 305 305 304 302 301 299 297 294 291 288 285 283 281 278 275 273 273 271 270 269 269 267 264 263 258 252 246 244 241 241 229 242 239 227
302 303 304 306 307 307 307 306 304 304 304 303 302 302 301 298 294 291 287 283 283 280 275 272 272 270 268 266 261 264 271 271 266 257 254 248 244 241 228 225 241 246 238